Location: Peebles
(55.6412°N, 3.1714°W)
Time: 12:43:25
(UTC+00:00)

CUTE-I - Pass Details

Date: 19 December 2023
Orbit: 807 x 823 km, 98.7° (Epoch: 24 February)

Event Time Altitude Azimuth Distance (km) Brightness Sun altitude
Rises 05:02:05 0° 26° (NNE) 3,372 ? -28.6°
Reaches altitude 10° 05:05:34 10° 49° (NE) 2,434 ? -28.1°
Maximum altitude 05:08:34 15° 84° (E) 2,097 ? -27.6°
Drops below altitude 10° 05:11:34 10° 118° (ESE) 2,425 ? -27.2°
Sets 05:15:01 0° 141° (SE) 3,350 ? -26.7°
